Weather Roundup
Issued by NWS

Home | Current Version | Previous Version | Text Only | Print | Product List | Glossary On
Versions: 1 2 3 4 5 6 7 8 9 10 11 12 13 14 15 16 17 18 19 20 21 22 23 24 25 26 27 28 29 30 31 32 33 34 35 36 37 38 39 40 41 42 43 44 45 46 47 48 49 50
000
NZUS93 KARX 272210
HRRWXR

CURRENT HOURLY OBSERVATIONS ACROSS
MUCH OF THE UPPER MISSISSIPPI VALLEY
NATIONAL WEATHER SERVICE LA CROSSE WI
500 PM CDT FRI MAY 27 2016


...SOUTHEAST MINNESOTA...


CITY           SKY/WX    TMP DP  RH WIND       PRES   REMARKS
ROCHESTER      CLOUDY    69  66  90 SW7       29.76S
ROCHESTER/MAYO CLOUDY    67  67  99 W3        29.76S
WINONA         PTSUNNY   73  66  78 CALM      29.73S
AUSTIN         CLOUDY    70  63  78 W6        29.76F
ALBERT LEA     PTSUNNY   70  63  78 CALM      29.75F
DODGE CENTER   CLOUDY    68  64  88 NW3       29.77S
PRESTON        CLOUDY    69  64  86 S7        29.76S
OWATONNA       PTSUNNY   68  61  77 CALM      29.77S
FARIBAULT      NOT AVBL
$$

...ELSEWHERE IN MINNESOTA...


CITY           SKY/WX    TMP DP  RH WIND       PRES   REMARKS
MINNEAPOLIS    LGT RAIN  65  61  87 N7        29.77S FOG
INTNL FALLS    CLOUDY    66  54  65 VRB3      29.86R
DULUTH         LGT RAIN  52  50  93 E5        29.87R
RED WING       CLOUDY    70  64  83 CALM      29.73S
REDWOOD FALLS  CLOUDY    67  62  84 CALM      29.75F
MANKATO        CLOUDY    68  61  77 E7        29.76F
WORTHINGTON    MOSUNNY   72  58  61 CALM      29.74F
FAIRMONT       PTSUNNY   73  59  60 W5        29.73F
$$

...SOUTHWEST WISCONSIN...


CITY           SKY/WX    TMP DP  RH WIND       PRES   REMARKS
LA CROSSE      PTSUNNY   76  64  66 S9        29.73F
PRAIRIE DU CHI CLOUDY    75  63  65 SE5       29.72F
BOSCOBEL       PTSUNNY   79  64  60 S8G20     29.73F
LONE ROCK      CLOUDY    76  68  76 VRB3      29.75F
PLATTEVILLE    CLOUDY    76  69  77 S16       29.76F
FORT MC COY    PTSUNNY   77  65  65 E9        29.75F
CAMP DOUGLAS   CLOUDY    72  72 100 E10       29.76F
MAUSTON-NEW LI CLOUDY    71  69  92 E5        29.77F
VIROQUA        MOCLDY    74  64  70 S10       29.76F
WIS DELLS      CLOUDY    71  67  88 CALM      29.78F
$$

...ELSEWHERE IN WISCONSIN...


CITY           SKY/WX    TMP DP  RH WIND       PRES   REMARKS
MILWAUKEE      CLOUDY    69  65  86 SE10      29.83S
MADISON        CLOUDY    74  66  76 VRB6      29.77S
GREEN BAY      PTSUNNY   70  66  87 NE6       29.83S FOG
EAU CLAIRE     CLOUDY    67  65  93 NE7       29.73F
BLACK RVR FLS  MOCLDY    80  61  53 S6        29.74F
MEDFORD        PTSUNNY   70  63  77 SE9G17    29.78F
WAUSAU         CLOUDY    73  62  68 E15       29.79F
WIS RAPIDS     HVY RAIN  69  65  86 SE10      29.80F VSB 1
MARSHFIELD     CLOUDY    73  63  70 E6        29.77F
RICE LAKE      HVY RAIN  63  60  92 NE12      29.78F
$$

...NORTHEAST IOWA...


CITY           SKY/WX    TMP DP  RH WIND       PRES   REMARKS
WATERLOO       CLOUDY    75  65  70 W10       29.72S
DUBUQUE        PTSUNNY   73  66  78 S21       29.76F
DECORAH        LGT RAIN  68  68 100 E7        29.73F
MASON CITY     PTSUNNY   73  64  73 N6        29.75F
CHARLES CITY   PTSUNNY   72  68  88 W6        29.75F
OELWEIN        MOSUNNY   73  70  88 W10       29.74S
$$

...ELSEWHERE IN IOWA...


CITY           SKY/WX    TMP DP  RH WIND       PRES   REMARKS
DES MOINES     CLOUDY    76  62  62 W7        29.73F
IOWA CITY      MOSUNNY   80  69  69 S17       29.73F
FORT DODGE     MOSUNNY   73  57  56 CALM      29.74F
MARSHALLTOWN   PTSUNNY   76  67  73 W13       29.72F
CEDAR RAPIDS   PTSUNNY   81  69  67 S12       29.71F
$$

...NORTHERN ILLINOIS...


CITY           SKY/WX    TMP DP  RH WIND       PRES   REMARKS
CHICAGO-OHARE  CLOUDY    77  67  71 S15       29.83S
CHICAGO-MIDWAY CLOUDY    80  65  59 S12G22    29.83F
MOLINE         CLOUDY    78  68  71 S10G22    29.76F
ROCKFORD       CLOUDY    73  67  81 S12       29.82F
PEORIA         CLOUDY    77  66  68 S17       29.80F
$$

NOTE: "FAIR" INDICATES FEW OR NO CLOUDS BELOW 12,000 FEET WITH NO
SIGNIFICANT WEATHER AND/OR OBSTRUCTIONS TO VISIBILITY. WIND
SPEEDS ARE IN MILES-PER-HOUR.




USA.gov is the U.S. government's official web portal to all federal, state and local government web resources and services.